Year,Month,Day,Hour,Minute,Value (Times are PST for barometer in hPa)
2020,11,13,00,00,993.60
2020,11,13,00,01,993.60
2020,11,13,00,02,993.60
2020,11,13,00,03,993.60
2020,11,13,00,04,993.60
2020,11,13,00,05,993.60
2020,11,13,00,06,993.60
2020,11,13,00,07,993.60
2020,11,13,00,08,993.60
2020,11,13,00,09,993.60
2020,11,13,00,10,993.60
2020,11,13,00,11,993.60
2020,11,13,00,12,993.60
2020,11,13,00,13,993.60
2020,11,13,00,14,993.58
2020,11,13,00,15,993.09
2020,11,13,00,16,993.09
2020,11,13,00,17,993.09
2020,11,13,00,18,993.09
2020,11,13,00,19,993.09
2020,11,13,00,20,993.09
2020,11,13,00,21,993.09
2020,11,13,00,22,993.09
2020,11,13,00,23,993.09
2020,11,13,00,24,993.09
2020,11,13,00,25,993.09
2020,11,13,00,26,993.09
2020,11,13,00,27,993.09
2020,11,13,00,28,993.09
2020,11,13,00,29,993.06
2020,11,13,00,30,992.31
2020,11,13,00,31,992.31
2020,11,13,00,32,992.31
2020,11,13,00,33,992.31
2020,11,13,00,34,992.31
2020,11,13,00,35,992.31
2020,11,13,00,36,992.31
2020,11,13,00,37,992.31
2020,11,13,00,38,992.31
2020,11,13,00,39,992.31
2020,11,13,00,40,992.31
2020,11,13,00,41,992.31
2020,11,13,00,42,992.31
2020,11,13,00,43,992.31
2020,11,13,00,44,992.28
2020,11,13,00,45,991.81
2020,11,13,00,46,991.81
2020,11,13,00,47,991.81
2020,11,13,00,48,991.81
2020,11,13,00,49,991.81
2020,11,13,00,50,991.81
2020,11,13,00,51,991.81
2020,11,13,00,52,991.81
2020,11,13,00,53,991.81
2020,11,13,00,54,991.81
2020,11,13,00,55,991.81
2020,11,13,00,56,991.81
2020,11,13,00,57,991.81
2020,11,13,00,58,991.81
2020,11,13,00,59,991.78
2020,11,13,01,00,991.16
2020,11,13,01,01,991.16
2020,11,13,01,02,991.16
2020,11,13,01,03,991.16
2020,11,13,01,04,991.16
2020,11,13,01,05,991.16
2020,11,13,01,06,991.16
2020,11,13,01,07,991.16
2020,11,13,01,08,991.16
2020,11,13,01,09,991.16
2020,11,13,01,10,991.16
2020,11,13,01,11,991.16
2020,11,13,01,12,991.16
2020,11,13,01,13,991.16
2020,11,13,01,14,991.12
2020,11,13,01,15,990.28
2020,11,13,01,16,990.28
2020,11,13,01,17,990.28
2020,11,13,01,18,990.28
2020,11,13,01,19,990.28
2020,11,13,01,20,990.28
2020,11,13,01,21,990.28
2020,11,13,01,22,990.28
2020,11,13,01,23,990.28
2020,11,13,01,24,990.28
2020,11,13,01,25,990.28
2020,11,13,01,26,990.28
2020,11,13,01,27,990.28
2020,11,13,01,28,990.28
2020,11,13,01,29,990.28
2020,11,13,01,30,989.67
2020,11,13,01,31,989.67
2020,11,13,01,32,989.67
2020,11,13,01,33,989.67
2020,11,13,01,34,989.67
2020,11,13,01,35,989.67
2020,11,13,01,36,989.67
2020,11,13,01,37,989.67
2020,11,13,01,38,989.67
2020,11,13,01,39,989.67
2020,11,13,01,40,989.67
2020,11,13,01,41,989.67
2020,11,13,01,42,989.67
2020,11,13,01,43,989.67
2020,11,13,01,44,989.64
2020,11,13,01,45,988.86
2020,11,13,01,46,988.86
2020,11,13,01,47,988.86
2020,11,13,01,48,988.86
2020,11,13,01,49,988.86
2020,11,13,01,50,988.86
2020,11,13,01,51,988.86
2020,11,13,01,52,988.86
2020,11,13,01,53,988.86
2020,11,13,01,54,988.86
2020,11,13,01,55,988.86
2020,11,13,01,56,988.86
2020,11,13,01,57,988.86
2020,11,13,01,58,988.86
2020,11,13,01,59,988.84
2020,11,13,02,00,988.35
2020,11,13,02,01,988.35
2020,11,13,02,02,988.35
2020,11,13,02,03,988.35
2020,11,13,02,04,988.35
2020,11,13,02,05,988.35
2020,11,13,02,06,988.35
2020,11,13,02,07,988.35
2020,11,13,02,08,988.35
2020,11,13,02,09,988.35
2020,11,13,02,10,988.35
2020,11,13,02,11,988.35
2020,11,13,02,12,988.35
2020,11,13,02,13,988.35
2020,11,13,02,14,988.35
2020,11,13,02,15,987.64
2020,11,13,02,16,987.64
2020,11,13,02,17,987.64
2020,11,13,02,18,987.64
2020,11,13,02,19,987.64
2020,11,13,02,20,987.64
2020,11,13,02,21,987.64
2020,11,13,02,22,987.64
2020,11,13,02,23,987.64
2020,11,13,02,24,987.64
2020,11,13,02,25,987.64
2020,11,13,02,26,987.64
2020,11,13,02,27,987.64
2020,11,13,02,28,987.64
2020,11,13,02,29,987.63
2020,11,13,02,30,987.40
2020,11,13,02,31,987.40
2020,11,13,02,32,987.40
2020,11,13,02,33,987.40
2020,11,13,02,34,987.40
2020,11,13,02,35,987.40
2020,11,13,02,36,987.40
2020,11,13,02,37,987.40
2020,11,13,02,38,987.40
2020,11,13,02,39,987.40
2020,11,13,02,40,987.40
2020,11,13,02,41,987.40
2020,11,13,02,42,987.40
2020,11,13,02,43,987.40
2020,11,13,02,44,987.40
2020,11,13,02,45,986.73
2020,11,13,02,46,986.73
2020,11,13,02,47,986.73
2020,11,13,02,48,986.73
2020,11,13,02,49,986.73
2020,11,13,02,50,986.73
2020,11,13,02,51,986.73
2020,11,13,02,52,986.73
2020,11,13,02,53,986.73
2020,11,13,02,54,986.73
2020,11,13,02,55,986.73
2020,11,13,02,56,986.73
2020,11,13,02,57,986.73
2020,11,13,02,58,986.73
2020,11,13,02,59,986.70
2020,11,13,03,00,986.12
2020,11,13,03,01,986.12
2020,11,13,03,02,986.12
2020,11,13,03,03,986.12
2020,11,13,03,04,986.12
2020,11,13,03,05,986.12
2020,11,13,03,06,986.12
2020,11,13,03,07,986.12
2020,11,13,03,08,986.12
2020,11,13,03,09,986.12
2020,11,13,03,10,986.12
2020,11,13,03,11,986.12
2020,11,13,03,12,986.12
2020,11,13,03,13,986.12
2020,11,13,03,14,986.12
2020,11,13,03,15,985.57
2020,11,13,03,16,985.57
2020,11,13,03,17,985.57
2020,11,13,03,18,985.57
2020,11,13,03,19,985.57
2020,11,13,03,20,985.57
2020,11,13,03,21,985.57
2020,11,13,03,22,985.57
2020,11,13,03,23,985.57
2020,11,13,03,24,985.57
2020,11,13,03,25,985.57
2020,11,13,03,26,985.57
2020,11,13,03,27,985.57
2020,11,13,03,28,985.57
2020,11,13,03,29,985.57
2020,11,13,03,30,985.07
2020,11,13,03,31,985.07
2020,11,13,03,32,985.07
2020,11,13,03,33,985.07
2020,11,13,03,34,985.07
2020,11,13,03,35,985.07
2020,11,13,03,36,985.07
2020,11,13,03,37,985.07
2020,11,13,03,38,985.07
2020,11,13,03,39,985.07
2020,11,13,03,40,985.07
2020,11,13,03,41,985.07
2020,11,13,03,42,985.07
2020,11,13,03,43,985.07
2020,11,13,03,44,985.07
2020,11,13,03,45,984.53
2020,11,13,03,46,984.53
2020,11,13,03,47,984.53
2020,11,13,03,48,984.53
2020,11,13,03,49,984.53
2020,11,13,03,50,984.53
2020,11,13,03,51,984.53
2020,11,13,03,52,984.53
2020,11,13,03,53,984.53
2020,11,13,03,54,984.53
2020,11,13,03,55,984.53
2020,11,13,03,56,984.53
2020,11,13,03,57,984.53
2020,11,13,03,58,984.53
2020,11,13,03,59,984.51
2020,11,13,04,00,984.05
2020,11,13,04,01,984.05
2020,11,13,04,02,984.05
2020,11,13,04,03,984.05
2020,11,13,04,04,984.05
2020,11,13,04,05,984.05
2020,11,13,04,06,984.05
2020,11,13,04,07,984.05
2020,11,13,04,08,984.05
2020,11,13,04,09,984.05
2020,11,13,04,10,984.05
2020,11,13,04,11,984.05
2020,11,13,04,12,984.05
2020,11,13,04,13,984.05
2020,11,13,04,14,984.05
2020,11,13,04,15,983.61
2020,11,13,04,16,983.61
2020,11,13,04,17,983.61
2020,11,13,04,18,983.61
2020,11,13,04,19,983.61
2020,11,13,04,20,983.61
2020,11,13,04,21,983.61
2020,11,13,04,22,983.61
2020,11,13,04,23,983.61
2020,11,13,04,24,983.61
2020,11,13,04,25,983.61
2020,11,13,04,26,983.61
2020,11,13,04,27,983.61
2020,11,13,04,28,983.61
2020,11,13,04,29,983.61
2020,11,13,04,30,983.81
2020,11,13,04,31,983.81
2020,11,13,04,32,983.81
2020,11,13,04,33,983.81
2020,11,13,04,34,983.81
2020,11,13,04,35,983.81
2020,11,13,04,36,983.81
2020,11,13,04,37,983.81
2020,11,13,04,38,983.81
2020,11,13,04,39,983.81
2020,11,13,04,40,983.81
2020,11,13,04,41,983.81
2020,11,13,04,42,983.81
2020,11,13,04,43,983.81
2020,11,13,04,44,983.80
2020,11,13,04,45,983.64
2020,11,13,04,46,983.64
2020,11,13,04,47,983.64
2020,11,13,04,48,983.64
2020,11,13,04,49,983.64
2020,11,13,04,50,983.64
2020,11,13,04,51,983.64
2020,11,13,04,52,983.64
2020,11,13,04,53,983.64
2020,11,13,04,54,983.64
2020,11,13,04,55,983.64
2020,11,13,04,56,983.64
2020,11,13,04,57,983.64
2020,11,13,04,58,983.64
2020,11,13,04,59,983.64
2020,11,13,05,00,983.68
2020,11,13,05,01,983.68
2020,11,13,05,02,983.68
2020,11,13,05,03,983.68
2020,11,13,05,04,983.68
2020,11,13,05,05,983.68
2020,11,13,05,06,983.68
2020,11,13,05,07,983.68
2020,11,13,05,08,983.68
2020,11,13,05,09,983.68
2020,11,13,05,10,983.68
2020,11,13,05,11,983.68
2020,11,13,05,12,983.68
2020,11,13,05,13,983.68
2020,11,13,05,14,983.70
2020,11,13,05,15,984.02
2020,11,13,05,16,984.02
2020,11,13,05,17,984.02
2020,11,13,05,18,984.02
2020,11,13,05,19,984.02
2020,11,13,05,20,984.02
2020,11,13,05,21,984.02
2020,11,13,05,22,984.02
2020,11,13,05,23,984.02
2020,11,13,05,24,984.02
2020,11,13,05,25,984.02
2020,11,13,05,26,984.02
2020,11,13,05,27,984.02
2020,11,13,05,28,984.02
2020,11,13,05,29,984.02
2020,11,13,05,30,983.61
2020,11,13,05,31,983.61
2020,11,13,05,32,983.61
2020,11,13,05,33,983.61
2020,11,13,05,34,983.61
2020,11,13,05,35,983.61
2020,11,13,05,36,983.61
2020,11,13,05,37,983.61
2020,11,13,05,38,983.61
2020,11,13,05,39,983.61
2020,11,13,05,40,983.61
2020,11,13,05,41,983.61
2020,11,13,05,42,983.61
2020,11,13,05,43,983.61
2020,11,13,05,44,983.61
2020,11,13,05,45,982.66
2020,11,13,05,46,982.66
2020,11,13,05,47,982.66
2020,11,13,05,48,982.66
2020,11,13,05,49,982.66
2020,11,13,05,50,982.66
2020,11,13,05,51,982.66
2020,11,13,05,52,982.66
2020,11,13,05,53,982.66
2020,11,13,05,54,982.66
2020,11,13,05,55,982.66
2020,11,13,05,56,982.66
2020,11,13,05,57,982.66
2020,11,13,05,58,982.66
2020,11,13,05,59,982.66
2020,11,13,06,00,983.00
2020,11,13,06,01,983.00
2020,11,13,06,02,983.00
2020,11,13,06,03,983.00
2020,11,13,06,04,983.00
2020,11,13,06,05,983.00
2020,11,13,06,06,983.00
2020,11,13,06,07,983.00
2020,11,13,06,08,983.00
2020,11,13,06,09,983.00
2020,11,13,06,10,983.00
2020,11,13,06,11,983.00
2020,11,13,06,12,983.00
2020,11,13,06,13,983.00
2020,11,13,06,14,983.01
2020,11,13,06,15,983.14
2020,11,13,06,16,983.14
2020,11,13,06,17,983.14
2020,11,13,06,18,983.14
2020,11,13,06,19,983.14
2020,11,13,06,20,983.14
2020,11,13,06,21,983.14
2020,11,13,06,22,983.14
2020,11,13,06,23,983.14
2020,11,13,06,24,983.14
2020,11,13,06,25,983.14
2020,11,13,06,26,983.14
2020,11,13,06,27,983.14
2020,11,13,06,28,983.14
2020,11,13,06,29,983.14
2020,11,13,06,30,983.00
2020,11,13,06,31,983.00
2020,11,13,06,32,983.00
2020,11,13,06,33,983.00
2020,11,13,06,34,983.00
2020,11,13,06,35,983.00
2020,11,13,06,36,983.00
2020,11,13,06,37,983.00
2020,11,13,06,38,983.00
2020,11,13,06,39,983.00
2020,11,13,06,40,983.00
2020,11,13,06,41,983.00
2020,11,13,06,42,983.00
2020,11,13,06,43,983.00
2020,11,13,06,44,983.00
2020,11,13,06,45,983.37
2020,11,13,06,46,983.37
2020,11,13,06,47,983.37
2020,11,13,06,48,983.37
2020,11,13,06,49,983.37
2020,11,13,06,50,983.37
2020,11,13,06,51,983.37
2020,11,13,06,52,983.37
2020,11,13,06,53,983.37
2020,11,13,06,54,983.37
2020,11,13,06,55,983.37
2020,11,13,06,56,983.37
2020,11,13,06,57,983.37
2020,11,13,06,58,983.37
2020,11,13,06,59,983.37
2020,11,13,07,00,983.17
2020,11,13,07,01,983.17
2020,11,13,07,02,983.17
2020,11,13,07,03,983.17
2020,11,13,07,04,983.17
2020,11,13,07,05,983.17
2020,11,13,07,06,983.17
2020,11,13,07,07,983.17
2020,11,13,07,08,983.17
2020,11,13,07,09,983.17
2020,11,13,07,10,983.17
2020,11,13,07,11,983.17
2020,11,13,07,12,983.17
2020,11,13,07,13,983.17
2020,11,13,07,14,983.17
2020,11,13,07,15,983.27
2020,11,13,07,16,983.27
2020,11,13,07,17,983.27
2020,11,13,07,18,983.27
2020,11,13,07,19,983.27
2020,11,13,07,20,983.27
2020,11,13,07,21,983.27
2020,11,13,07,22,983.27
2020,11,13,07,23,983.27
2020,11,13,07,24,983.27
2020,11,13,07,25,983.27
2020,11,13,07,26,983.27
2020,11,13,07,27,983.27
2020,11,13,07,28,983.27
2020,11,13,07,29,983.28
2020,11,13,07,30,983.54
2020,11,13,07,31,983.54
2020,11,13,07,32,983.54
2020,11,13,07,33,983.54
2020,11,13,07,34,983.54
2020,11,13,07,35,983.54
2020,11,13,07,36,983.54
2020,11,13,07,37,983.54
2020,11,13,07,38,983.54
2020,11,13,07,39,983.54
2020,11,13,07,40,983.54
2020,11,13,07,41,983.54
2020,11,13,07,42,983.54
2020,11,13,07,43,983.54
2020,11,13,07,44,983.54
2020,11,13,07,45,983.92
2020,11,13,07,46,983.92
2020,11,13,07,47,983.92
2020,11,13,07,48,983.92
2020,11,13,07,49,983.92
2020,11,13,07,50,983.92
2020,11,13,07,51,983.92
2020,11,13,07,52,983.92
2020,11,13,07,53,983.92
2020,11,13,07,54,983.92
2020,11,13,07,55,983.92
2020,11,13,07,56,983.92
2020,11,13,07,57,983.92
2020,11,13,07,58,983.92
2020,11,13,07,59,983.92
2020,11,13,08,00,983.98
2020,11,13,08,01,983.98
2020,11,13,08,02,983.98
2020,11,13,08,03,983.98
2020,11,13,08,04,983.98
2020,11,13,08,05,983.98
2020,11,13,08,06,983.98
2020,11,13,08,07,983.98
2020,11,13,08,08,983.98
2020,11,13,08,09,983.98
2020,11,13,08,10,983.98
2020,11,13,08,11,983.98
2020,11,13,08,12,983.98
2020,11,13,08,13,983.98
2020,11,13,08,14,983.98
2020,11,13,08,15,984.02
2020,11,13,08,16,984.02
2020,11,13,08,17,984.02
2020,11,13,08,18,984.02
2020,11,13,08,19,984.02
2020,11,13,08,20,984.02
2020,11,13,08,21,984.02
2020,11,13,08,22,984.02
2020,11,13,08,23,984.02
2020,11,13,08,24,984.02
2020,11,13,08,25,984.02
2020,11,13,08,26,984.02
2020,11,13,08,27,984.02
2020,11,13,08,28,984.02
2020,11,13,08,29,984.02
2020,11,13,08,30,984.15
2020,11,13,08,31,984.15
2020,11,13,08,32,984.15
2020,11,13,08,33,984.15
2020,11,13,08,34,984.15
2020,11,13,08,35,984.15
2020,11,13,08,36,984.15
2020,11,13,08,37,984.15
2020,11,13,08,38,984.15
2020,11,13,08,39,984.15
2020,11,13,08,40,984.15
2020,11,13,08,41,984.15
2020,11,13,08,42,984.15
2020,11,13,08,43,984.15
2020,11,13,08,44,984.16
2020,11,13,08,45,984.25
2020,11,13,08,46,984.25
2020,11,13,08,47,984.25
2020,11,13,08,48,984.25
2020,11,13,08,49,984.25
2020,11,13,08,50,984.25
2020,11,13,08,51,984.25
2020,11,13,08,52,984.25
2020,11,13,08,53,984.25
2020,11,13,08,54,984.25
2020,11,13,08,55,984.25
2020,11,13,08,56,984.25
2020,11,13,08,57,984.25
2020,11,13,08,58,984.25
2020,11,13,08,59,984.25
2020,11,13,09,00,984.05
2020,11,13,09,01,984.05
2020,11,13,09,02,984.05
2020,11,13,09,03,984.05
2020,11,13,09,04,984.05
2020,11,13,09,05,984.05
2020,11,13,09,06,984.05
2020,11,13,09,07,984.05
2020,11,13,09,08,984.05
2020,11,13,09,09,984.05
2020,11,13,09,10,984.05
2020,11,13,09,11,984.05
2020,11,13,09,12,984.05
2020,11,13,09,13,984.05
2020,11,13,09,14,984.06
2020,11,13,09,15,984.25
2020,11,13,09,16,984.25
2020,11,13,09,17,984.25
2020,11,13,09,18,984.25
2020,11,13,09,19,984.25
2020,11,13,09,20,984.25
2020,11,13,09,21,984.25
2020,11,13,09,22,984.25
2020,11,13,09,23,984.25
2020,11,13,09,24,984.25
2020,11,13,09,25,984.25
2020,11,13,09,26,984.25
2020,11,13,09,27,984.25
2020,11,13,09,28,984.25
2020,11,13,09,29,984.25
2020,11,13,09,30,984.63
2020,11,13,09,31,984.63
2020,11,13,09,32,984.63
2020,11,13,09,33,984.63
2020,11,13,09,34,984.63
2020,11,13,09,35,984.63
2020,11,13,09,36,984.63
2020,11,13,09,37,984.63
2020,11,13,09,38,984.63
2020,11,13,09,39,984.63
2020,11,13,09,40,984.63
2020,11,13,09,41,984.63
2020,11,13,09,42,984.63
2020,11,13,09,43,984.63
2020,11,13,09,44,984.63
2020,11,13,09,45,985.07
2020,11,13,09,46,985.07
2020,11,13,09,47,985.07
2020,11,13,09,48,985.07
2020,11,13,09,49,985.07
2020,11,13,09,50,985.07
2020,11,13,09,51,985.07
2020,11,13,09,52,985.07
2020,11,13,09,53,985.07
2020,11,13,09,54,985.07
2020,11,13,09,55,985.07
2020,11,13,09,56,985.07
2020,11,13,09,57,985.07
2020,11,13,09,58,985.07
2020,11,13,09,59,985.07
2020,11,13,10,00,985.51
2020,11,13,10,01,985.51
2020,11,13,10,02,985.51
2020,11,13,10,03,985.51
2020,11,13,10,04,985.51
2020,11,13,10,05,985.51
2020,11,13,10,06,985.51
2020,11,13,10,07,985.51
2020,11,13,10,08,985.51
2020,11,13,10,09,985.51
2020,11,13,10,10,985.51
2020,11,13,10,11,985.51
2020,11,13,10,12,985.51
2020,11,13,10,13,985.51
2020,11,13,10,14,985.51
2020,11,13,10,15,986.08
2020,11,13,10,16,986.08
2020,11,13,10,17,986.08
2020,11,13,10,18,986.08
2020,11,13,10,19,986.08
2020,11,13,10,20,986.08
2020,11,13,10,21,986.08
2020,11,13,10,22,986.08
2020,11,13,10,23,986.08
2020,11,13,10,24,986.08
2020,11,13,10,25,986.08
2020,11,13,10,26,986.08
2020,11,13,10,27,986.08
2020,11,13,10,28,986.08
2020,11,13,10,29,986.10
2020,11,13,10,30,986.56
2020,11,13,10,31,986.56
2020,11,13,10,32,986.56
2020,11,13,10,33,986.56
2020,11,13,10,34,986.56
2020,11,13,10,35,986.56
2020,11,13,10,36,986.56
2020,11,13,10,37,986.56
2020,11,13,10,38,986.56
2020,11,13,10,39,986.56
2020,11,13,10,40,986.56
2020,11,13,10,41,986.56
2020,11,13,10,42,986.56
2020,11,13,10,43,986.56
2020,11,13,10,44,986.56
2020,11,13,10,45,987.47
2020,11,13,10,46,987.47
2020,11,13,10,47,987.47
2020,11,13,10,48,987.47
2020,11,13,10,49,987.47
2020,11,13,10,50,987.47
2020,11,13,10,51,987.47
2020,11,13,10,52,987.47
2020,11,13,10,53,987.47
2020,11,13,10,54,987.47
2020,11,13,10,55,987.47
2020,11,13,10,56,987.47
2020,11,13,10,57,987.47
2020,11,13,10,58,987.47
2020,11,13,10,59,987.47
2020,11,13,11,00,988.15
2020,11,13,11,01,988.15
2020,11,13,11,02,988.15
2020,11,13,11,03,988.15
2020,11,13,11,04,988.15
2020,11,13,11,05,988.15
2020,11,13,11,06,988.15
2020,11,13,11,07,988.15
2020,11,13,11,08,988.15
2020,11,13,11,09,988.15
2020,11,13,11,10,988.15
2020,11,13,11,11,988.15
2020,11,13,11,12,988.15
2020,11,13,11,13,988.15
2020,11,13,11,14,988.15
2020,11,13,11,15,988.66
2020,11,13,11,16,988.66
2020,11,13,11,17,988.66
2020,11,13,11,18,988.66
2020,11,13,11,19,988.66
2020,11,13,11,20,988.66
2020,11,13,11,21,988.66
2020,11,13,11,22,988.66
2020,11,13,11,23,988.66
2020,11,13,11,24,988.66
2020,11,13,11,25,988.66
2020,11,13,11,26,988.66
2020,11,13,11,27,988.66
2020,11,13,11,28,988.66
2020,11,13,11,29,988.66
2020,11,13,11,30,988.69
2020,11,13,11,31,988.69
2020,11,13,11,32,988.69
2020,11,13,11,33,988.69
2020,11,13,11,34,988.69
2020,11,13,11,35,988.69
2020,11,13,11,36,988.69
2020,11,13,11,37,988.69
2020,11,13,11,38,988.69
2020,11,13,11,39,988.69
2020,11,13,11,40,988.69
2020,11,13,11,41,988.69
2020,11,13,11,42,988.69
2020,11,13,11,43,988.69
2020,11,13,11,44,988.70
2020,11,13,11,45,989.00
2020,11,13,11,46,989.00
2020,11,13,11,47,989.00
2020,11,13,11,48,989.00
2020,11,13,11,49,989.00
2020,11,13,11,50,989.00
2020,11,13,11,51,989.00
2020,11,13,11,52,989.00
2020,11,13,11,53,989.00
2020,11,13,11,54,989.00
2020,11,13,11,55,989.00
2020,11,13,11,56,989.00
2020,11,13,11,57,989.00
2020,11,13,11,58,989.00
2020,11,13,11,59,989.00
2020,11,13,12,00,989.20
2020,11,13,12,01,989.20
2020,11,13,12,02,989.20
2020,11,13,12,03,989.20
2020,11,13,12,04,989.20
2020,11,13,12,05,989.20
2020,11,13,12,06,989.20
2020,11,13,12,07,989.20
2020,11,13,12,08,989.20
2020,11,13,12,09,989.20
2020,11,13,12,10,989.20
2020,11,13,12,11,989.20
2020,11,13,12,12,989.20
2020,11,13,12,13,989.20
2020,11,13,12,14,989.20
2020,11,13,12,15,989.71
2020,11,13,12,16,989.71
2020,11,13,12,17,989.71
2020,11,13,12,18,989.71
2020,11,13,12,19,989.71
2020,11,13,12,20,989.71
2020,11,13,12,21,989.71
2020,11,13,12,22,989.71
2020,11,13,12,23,989.71
2020,11,13,12,24,989.71
2020,11,13,12,25,989.71
2020,11,13,12,26,989.71
2020,11,13,12,27,989.71
2020,11,13,12,28,989.71
2020,11,13,12,29,989.71
2020,11,13,12,30,990.11
2020,11,13,12,31,990.11
2020,11,13,12,32,990.11
2020,11,13,12,33,990.11
2020,11,13,12,34,990.11
2020,11,13,12,35,990.11
2020,11,13,12,36,990.11
2020,11,13,12,37,990.11
2020,11,13,12,38,990.11
2020,11,13,12,39,990.11
2020,11,13,12,40,990.11
2020,11,13,12,41,990.11
2020,11,13,12,42,990.11
2020,11,13,12,43,990.11
2020,11,13,12,44,990.11
2020,11,13,12,45,990.42
2020,11,13,12,46,990.42
2020,11,13,12,47,990.42
2020,11,13,12,48,990.42
2020,11,13,12,49,990.42
2020,11,13,12,50,990.42
2020,11,13,12,51,990.42
2020,11,13,12,52,990.42
2020,11,13,12,53,990.42
2020,11,13,12,54,990.42
2020,11,13,12,55,990.42
2020,11,13,12,56,990.42
2020,11,13,12,57,990.42
2020,11,13,12,58,990.42
2020,11,13,12,59,990.42
2020,11,13,13,00,990.72
2020,11,13,13,01,990.72
2020,11,13,13,02,990.72
2020,11,13,13,03,990.72
2020,11,13,13,04,990.72
2020,11,13,13,05,990.72
2020,11,13,13,06,990.72
2020,11,13,13,07,990.72
2020,11,13,13,08,990.72
2020,11,13,13,09,990.72
2020,11,13,13,10,990.72
2020,11,13,13,11,990.72
2020,11,13,13,12,990.72
2020,11,13,13,13,990.72
2020,11,13,13,14,990.72
2020,11,13,13,15,991.06
2020,11,13,13,16,991.06
2020,11,13,13,17,991.06
2020,11,13,13,18,991.06
2020,11,13,13,19,991.06
2020,11,13,13,20,991.06
2020,11,13,13,21,991.06
2020,11,13,13,22,991.06
2020,11,13,13,23,991.06
2020,11,13,13,24,991.06
2020,11,13,13,25,991.06
2020,11,13,13,26,991.06
2020,11,13,13,27,991.06
2020,11,13,13,28,991.06
2020,11,13,13,29,991.06
2020,11,13,13,30,991.26
2020,11,13,13,31,991.26
2020,11,13,13,32,991.26
2020,11,13,13,33,991.26
2020,11,13,13,34,991.26
2020,11,13,13,35,991.26
2020,11,13,13,36,991.26
2020,11,13,13,37,991.26
2020,11,13,13,38,991.26
2020,11,13,13,39,991.26
2020,11,13,13,40,991.26
2020,11,13,13,41,991.26
2020,11,13,13,42,991.26
2020,11,13,13,43,991.26
2020,11,13,13,44,991.26
2020,11,13,13,45,991.87
2020,11,13,13,46,991.87
2020,11,13,13,47,991.87
2020,11,13,13,48,991.87
2020,11,13,13,49,991.87
2020,11,13,13,50,991.87
2020,11,13,13,51,991.87
2020,11,13,13,52,991.87
2020,11,13,13,53,991.87
2020,11,13,13,54,991.87
2020,11,13,13,55,991.87
2020,11,13,13,56,991.87
2020,11,13,13,57,991.87
2020,11,13,13,58,991.87
2020,11,13,13,59,991.87
2020,11,13,14,00,992.28
2020,11,13,14,01,992.28
2020,11,13,14,02,992.28
2020,11,13,14,03,992.28
2020,11,13,14,04,992.28
2020,11,13,14,05,992.28
2020,11,13,14,06,992.28
2020,11,13,14,07,992.28
2020,11,13,14,08,992.28
2020,11,13,14,09,992.28
2020,11,13,14,10,992.28
2020,11,13,14,11,992.28
2020,11,13,14,12,992.28
2020,11,13,14,13,992.28
2020,11,13,14,14,992.28
2020,11,13,14,15,992.69
2020,11,13,14,16,992.69
2020,11,13,14,17,992.69
2020,11,13,14,18,992.69
2020,11,13,14,19,992.69
2020,11,13,14,20,992.69
2020,11,13,14,21,992.69
2020,11,13,14,22,992.69
2020,11,13,14,23,992.69
2020,11,13,14,24,992.69
2020,11,13,14,25,992.69
2020,11,13,14,26,992.69
2020,11,13,14,27,992.69
2020,11,13,14,28,992.69
2020,11,13,14,29,992.69
2020,11,13,14,30,993.26
2020,11,13,14,31,993.26
2020,11,13,14,32,993.26
2020,11,13,14,33,993.26
2020,11,13,14,34,993.26
2020,11,13,14,35,993.26
2020,11,13,14,36,993.26
2020,11,13,14,37,993.26
2020,11,13,14,38,993.26
2020,11,13,14,39,993.26
2020,11,13,14,40,993.26
2020,11,13,14,41,993.26
2020,11,13,14,42,993.26
2020,11,13,14,43,993.26
2020,11,13,14,44,993.26
2020,11,13,14,45,993.82
2020,11,13,14,46,993.84
2020,11,13,14,47,993.84
2020,11,13,14,48,993.84
2020,11,13,14,49,993.84
2020,11,13,14,50,993.84
2020,11,13,14,51,993.84
2020,11,13,14,52,993.84
2020,11,13,14,53,993.84
2020,11,13,14,54,993.84
2020,11,13,14,55,993.84
2020,11,13,14,56,993.84
2020,11,13,14,57,993.84
2020,11,13,14,58,993.84
2020,11,13,14,59,993.84
2020,11,13,15,00,994.31
2020,11,13,15,01,994.31
2020,11,13,15,02,994.31
2020,11,13,15,03,994.31
2020,11,13,15,04,994.31
2020,11,13,15,05,994.31
2020,11,13,15,06,994.31
2020,11,13,15,07,994.31
2020,11,13,15,08,994.31
2020,11,13,15,09,994.31
2020,11,13,15,10,994.31
2020,11,13,15,11,994.31
2020,11,13,15,12,994.31
2020,11,13,15,13,994.31
2020,11,13,15,14,994.31
2020,11,13,15,15,994.65
2020,11,13,15,16,994.65
2020,11,13,15,17,994.65
2020,11,13,15,18,994.65
2020,11,13,15,19,994.65
2020,11,13,15,20,994.65
2020,11,13,15,21,994.65
2020,11,13,15,22,994.65
2020,11,13,15,23,994.65
2020,11,13,15,24,994.65
2020,11,13,15,25,994.65
2020,11,13,15,26,994.65
2020,11,13,15,27,994.65
2020,11,13,15,28,994.65
2020,11,13,15,29,994.65
2020,11,13,15,30,994.99
2020,11,13,15,31,994.99
2020,11,13,15,32,994.99
2020,11,13,15,33,994.99
2020,11,13,15,34,994.99
2020,11,13,15,35,994.99
2020,11,13,15,36,994.99
2020,11,13,15,37,994.99
2020,11,13,15,38,994.99
2020,11,13,15,39,994.99
2020,11,13,15,40,994.99
2020,11,13,15,41,994.99
2020,11,13,15,42,994.99
2020,11,13,15,43,994.99
2020,11,13,15,44,994.99
2020,11,13,15,45,995.46
2020,11,13,15,46,995.46
2020,11,13,15,47,995.46
2020,11,13,15,48,995.46
2020,11,13,15,49,995.46
2020,11,13,15,50,995.46
2020,11,13,15,51,995.46
2020,11,13,15,52,995.46
2020,11,13,15,53,995.46
2020,11,13,15,54,995.46
2020,11,13,15,55,995.46
2020,11,13,15,56,995.46
2020,11,13,15,57,995.46
2020,11,13,15,58,995.46
2020,11,13,15,59,995.46
2020,11,13,16,00,995.67
2020,11,13,16,01,995.67
2020,11,13,16,02,995.67
2020,11,13,16,03,995.67
2020,11,13,16,04,995.67
2020,11,13,16,05,995.67
2020,11,13,16,06,995.67
2020,11,13,16,07,995.67
2020,11,13,16,08,995.67
2020,11,13,16,09,995.67
2020,11,13,16,10,995.67
2020,11,13,16,11,995.67
2020,11,13,16,12,995.67
2020,11,13,16,13,995.67
2020,11,13,16,14,995.67
2020,11,13,16,15,996.07
2020,11,13,16,16,996.07
2020,11,13,16,17,996.07
2020,11,13,16,18,996.07
2020,11,13,16,19,996.07
2020,11,13,16,20,996.07
2020,11,13,16,21,996.07
2020,11,13,16,22,996.07
2020,11,13,16,23,996.07
2020,11,13,16,24,996.07
2020,11,13,16,25,996.07
2020,11,13,16,26,996.07
2020,11,13,16,27,996.07
2020,11,13,16,28,996.07
2020,11,13,16,29,996.07
2020,11,13,16,30,996.72
2020,11,13,16,31,996.72
2020,11,13,16,32,996.72
2020,11,13,16,33,996.72
2020,11,13,16,34,996.72
2020,11,13,16,35,996.72
2020,11,13,16,36,996.72